Change the Weather History Date:

Sunday, January 12, 2014

  Actual Average Record
Temperature  
Mean Temperature -24 °F -  
Max Temperature -11 °F 4 °F 24 °F (1997)
Min Temperature -36 °F -4 °F -44 °F (2000)
Degree Days  
Heating Degree Days 88    
Moisture  
Dew Point -31 °F    
Average Humidity 73    
Maximum Humidity 78    
Minimum Humidity 59    
Precipitation  
Precipitation 0.00 in - - ()
Sea Level Pressure  
Sea Level Pressure 29.44 in    
Wind  
Wind Speed 1 mph (SSW)    
Max Wind Speed 14 mph    
Max Gust Speed -    
Visibility 10 miles    
Events      
Averages and records for this station are not official NWS values.
T = Trace of Precipitation, MM = Missing Value Source: NWS Daily Summary

Daily Weather History Graph

Daily Weather History Graph

Search for Another Location

Airport or City:

Trip Planner

Search our weather history database for the weather conditions in past years. The results will help you decide how hot, cold, wet, or windy it might be!

Date:

Astronomy

Jan. 12, 2014 Rise Set
Actual Time 10:14 AM AKST 3:29 PM AKST
Civil Twilight 9:05 AM AKST 4:37 PM AKST
Nautical Twilight 8:01 AM AKST 5:42 PM AKST
Astronomical Twilight 7:03 AM AKST 6:40 PM AKST
Moon 1:14 PM AKST (1/12) 7:09 AM AKST (1/12)
Length of Visible Light 7h 31m
Length of Day
5h 14m
Waxing Gibbous, 90% of the Moon is Illuminated
Jan 12
Waxing Gibbous
Jan 15
Full
Jan 23
Last Quarter
Jan 30
New
Feb 6
First Quarter

Hourly Weather History & Observations

Time (AKST) Temp. Windchill Dew Point Humidity Pressure Visibility Wind Dir Wind Speed Gust Speed Precip Events Conditions
12:53 AM -29.9 °F - - N/A% 29.46 in 10.0 mi Calm Calm - N/A   Clear
1:53 AM -33.0 °F - - N/A% 29.45 in 10.0 mi Calm Calm - N/A   Clear
2:53 AM -33.0 °F - - N/A% 29.44 in 10.0 mi Calm Calm - N/A   Clear
3:53 AM -33.0 °F -45.5 °F - N/A% 29.43 in 10.0 mi SE 3.5 mph - N/A   Clear
4:53 AM -36.0 °F - - N/A% 29.43 in 10.0 mi Calm Calm - N/A   Clear
5:53 AM -32.1 °F -44.5 °F - N/A% 29.41 in 10.0 mi WSW 3.5 mph - N/A   Clear
6:53 AM -32.1 °F -44.5 °F - N/A% 29.40 in 10.0 mi West 3.5 mph - N/A   Clear
7:53 AM -27.9 °F - -34.1 °F 73% 29.38 in 10.0 mi Calm Calm - N/A   Clear
8:53 AM -31.0 °F - - N/A% 29.39 in 10.0 mi Calm Calm - N/A   Clear
9:53 AM -27.0 °F -41.5 °F -32.1 °F 77% 29.39 in 10.0 mi East 4.6 mph - N/A   Clear
10:53 AM -13.0 °F -35.2 °F -20.0 °F 71% 29.36 in 10.0 mi ESE 13.8 mph - N/A   Clear
11:53 AM -20.0 °F - -27.0 °F 70% 29.39 in 10.0 mi Calm Calm - N/A   Partly Cloudy
12:53 PM -26.0 °F -40.2 °F -31.0 °F 77% 29.41 in 10.0 mi Variable 4.6 mph - N/A   Partly Cloudy
1:53 PM -24.0 °F -35.2 °F -29.9 °F 74% 29.42 in 10.0 mi WSW 3.5 mph - N/A   Scattered Clouds
2:53 PM -25.1 °F - -31.0 °F 74% 29.42 in 10.0 mi Calm Calm - N/A   Scattered Clouds
3:53 PM -25.1 °F -36.5 °F -29.9 °F 78% 29.44 in 10.0 mi West 3.5 mph - N/A   Scattered Clouds
4:53 PM -25.1 °F -36.5 °F -29.9 °F 78% 29.45 in 10.0 mi SSW 3.5 mph - N/A   Scattered Clouds
5:53 PM -25.1 °F -39.1 °F -31.0 °F 74% 29.46 in 10.0 mi SSW 4.6 mph - N/A   Scattered Clouds
6:53 PM -26.0 °F - -32.1 °F 73% 29.48 in 10.0 mi Calm Calm - N/A   Scattered Clouds
7:53 PM -29.9 °F - -34.6 °F 78% 29.50 in 10.0 mi Calm Calm - N/A   Scattered Clouds
8:53 PM -29.9 °F - -34.6 °F 78% 29.53 in 10.0 mi Calm Calm - N/A   Scattered Clouds
9:53 PM -29.0 °F - -35.0 °F 73% 29.55 in 10.0 mi Calm Calm - N/A   Clear
10:53 PM -29.0 °F - -35.0 °F 73% 29.54 in 10.0 mi Calm Calm - N/A   Clear
11:53 PM -29.9 °F - - N/A% 29.59 in 10.0 mi Calm Calm - N/A   Clear